Powrót do katalogu

AISAT

AktywnyKrótkofalarstwoPO
NORAD 40054·PAYLOAD·🇩🇪 Germany

Wystrzelony Jun 30, 2014 z Satish Dhawan Space Centre

Loading…

Następne Przeloty (najbliższe 24 godziny)

TLE

ŚwieżeSource: Space-Track

Epoka: Sep 14, 2026, 05:57 UTC

1 40054U 14034B   26257.24832665  .00008169  00000-0  50169-3 0  9991
2 40054  98.2330 176.2229 0007139 288.7441  71.3012 15.10367000660642

Śledź AISAT w czasie rzeczywistym z AllMySat

Download on the App Store